Andravida Air Base

Airport
ICAO code: 
LGAD
IATA Code: 
PYR
Summary
ICAO Region: 
EUR
Territory: 
Location: 
Andravida, Western Greece
Serving: 
Andravida
Elevation: 
55 ft
Coordinates: 
Aerial View: 
37° 55' 14.52" N, 21° 17' 33.36" E
Metar
Observation
LGAD 241620Z 02010KT 9999 FEW025 BKN070 03/M06 Q1021
Station
Andravida Airport
Date/Time
2022-01-24 16:20:00
Wind direction
20°
Wind speed
10 kts
Lowest cloud amount
few clouds
Temperature
3°C
Dew point
-6°C
Humidity
51%
QNH
1021 hPa
Weather condition
n/a

Andravida Air Base is a military airport operated by the Hellenic Air Force, located 1.5 nm from the town of Andravida in Elis, Greece.

Climatology

Warm mediterranean climate (Köppen climate classification Csa)

Runways

Designator Length Width Surface Rops
16/34 3139 45 ASP No/No
Airport map: 
Aerial View: 

SKYbrary Partners:

Safety knowledge contributed by: